(40) Harmonia
ephemeris date magn radius delta ra dec elong phase
Today20 Jul 202511.52.196 AU2.785 AU04h42m+19°58'45.5°19.3°
Opposition2 Jan 20269.02.277 AU1.294 AU06h51m+23°54'179.0°0.4°
(40) Harmonia - 2025-07-20
astro.vanbuitenen.nl


 
-1 year
-1 month
-1 day
Now
+1 day
+1 month
+1 year

The interactive orbit chart above shows the body's path through the solar system and its position at the given date. Green and blue lines are shown perpendicular to the ecliptic plane: Green if the path is above the ecliptic plane, blue if it is below. (Left-click and drag to rotate the view; Right-click and drag to move the view; Use scroll wheel to zoom in our out.)

The orbital elements of Harmonia are:

            e (Eccentricity)                : 0.0460364
            a (Semimajor axis)              : 2.2669577
            i (Inclination)                 : 4.25591
            Ω (Longitude of ascending node) : 94.15595
            ω (Argument of perihelion)      : 269.47054
            M (Mean anomaly)                : 22.93684
            Epoch                           : 2025 May 05

            L (Longitude of perihelion)     : 183.62503
            B (Latitude of perihelion)      : -4.25573
            P (Orbital period in years)     : 3.41            
        

The light curve chart below shows the estimated development of the minor planet's magnitude.


The all-sky chart below shows the path of the minor planet over the same period as the light curve. The current position is marked yellow.





The following chart shows the path of the minor planet in the next few days. The field of view is optimized for (~10x50) binoculars and finderscopes. A more printer-friendly version of the same chart can be found below.




Ephemerides:
Date       Time       RA (2000)    DEC (2000)    delta   radius  elong  phase   PA    magn
2025-07-20 00:00 UT   04 42 11.0   +19 58 48     2.785    2.196   45.5   19.3   260   11.5 
2025-07-20 06:36 UT   04 42 43.6   +19 59 56     2.783    2.196   45.6   19.3   260   11.5 
2025-07-21 00:00 UT   04 44 09.4   +20 02 53     2.777    2.196   46.0   19.4   260   11.5 
2025-07-22 00:00 UT   04 46 07.6   +20 06 52     2.769    2.196   46.5   19.6   261   11.5 
2025-07-23 00:00 UT   04 48 05.6   +20 10 45     2.761    2.197   47.0   19.8   261   11.5 
2025-07-24 00:00 UT   04 50 03.4   +20 14 33     2.753    2.197   47.4   19.9   261   11.5 
2025-07-25 00:00 UT   04 52 01.0   +20 18 15     2.745    2.198   47.9   20.1   261   11.5 
2025-07-26 00:00 UT   04 53 58.4   +20 21 51     2.736    2.198   48.4   20.2   262   11.5 
2025-07-27 00:00 UT   04 55 55.5   +20 25 21     2.728    2.198   48.9   20.4   262   11.5 
2025-07-28 00:00 UT   04 57 52.4   +20 28 45     2.720    2.199   49.4   20.5   262   11.4 
2025-07-29 00:00 UT   04 59 49.0   +20 32 04     2.711    2.199   49.9   20.7   262   11.4 
2025-07-30 00:00 UT   05 01 45.4   +20 35 17     2.703    2.200   50.4   20.8   262   11.4 
2025-07-31 00:00 UT   05 03 41.5   +20 38 24     2.694    2.200   50.9   21.0   263   11.4 
2025-08-01 00:00 UT   05 05 37.3   +20 41 26     2.685    2.200   51.4   21.1   263   11.4 
2025-08-02 00:00 UT   05 07 32.9   +20 44 22     2.677    2.201   51.9   21.3   263   11.4 
2025-08-03 00:00 UT   05 09 28.1   +20 47 13     2.668    2.201   52.4   21.4   263   11.4 
2025-08-04 00:00 UT   05 11 23.1   +20 49 58     2.659    2.202   52.9   21.6   264   11.4 
2025-08-05 00:00 UT   05 13 17.8   +20 52 38     2.650    2.202   53.4   21.7   264   11.4 
2025-08-06 00:00 UT   05 15 12.1   +20 55 12     2.641    2.203   53.9   21.9   264   11.4 
2025-08-07 00:00 UT   05 17 06.2   +20 57 41     2.632    2.203   54.5   22.0   264   11.4 


    Terminology:
            
    delta:  distance between minor planet and earth in AU
    radius: distance between minor planet and sun in AU
    magn:   magnitude (brightness) estimate    
    ra:     right ascension in hours (24h = 360deg)
    dec:    declination in degrees
    elong:  elongation in degrees (angle sun-earth-minor planet)    
    phase:  phase angle in degrees (angle sun-minor planet-earth)        
    AU:     Astronomical Unit (mean distance between earth and sun: 149597870.7 km
    

Orbital elements provided by the MPC (Minor Planet Center).
Calculations by a modified version of AAPlus, a C# implementation of the AA+ project by PJ Naughter from the algorithms presented in the book "Astronomical Algorithms" by Jean Meeus.
NGC2000 dso catalog and star labels from VizieR as provided by the Strasbourg astronomical Data Center.
Tycho2 catalog from the ESO archive.